Weather History for Alexandria, LA

Change the Weather History Date:

Sunday, October 9, 2011

  Actual Average Record
Temperature  
Mean Temperature 75 °F 69 °F  
Max Temperature 85 °F 81 °F 97 °F (1909)
Min Temperature 64 °F 57 °F 38 °F (1917)
Degree Days  
Heating Degree Days 0 1  
Month to date heating degree days 9 9  
Since 1 July heating degree days 9 12  
Cooling Degree Days 10 5  
Month to date cooling degree days 32 57  
Year to date cooling degree days 2909 2407  
Growing Degree Days 23 (Base 50)    
Moisture  
Dew Point 56 °F    
Average Humidity 61    
Maximum Humidity 84    
Minimum Humidity 37    
Precipitation  
Precipitation 0.00 in 0.17 in 2.50 in (1909)
Month to date precipitation 0.00 1.83  
Year to date precipitation 25.90 40.96  
Snow  
Snow 0.00 in - 0.00 in ()
Month to date snowfall 0.0  
Since 1 July snowfall 0.0  
Since 1 September snowfall 0.0  
Snow Depth 0.00 in    
Sea Level Pressure  
Sea Level Pressure 30.02 in    
Wind  
Wind Speed 7 mph (East)    
Max Wind Speed 18 mph    
Max Gust Speed 22 mph    
Visibility 10 miles    
Events      
T = Trace of Precipitation, MM = Missing Value Source: NWS Daily Summary

Daily Weather History Graph

Daily Weather History Graph

Search for Another Location

Airport:

Trip Planner

Search our weather history database for the weather conditions in past years. The results will help you decide how hot, cold, wet, or windy it might be!

Date:

Astronomy

Oct. 09, 2011 Rise Set
Actual Time 7:08 AM CDT 6:45 PM CDT
Civil Twilight 6:44 AM CDT 7:09 PM CDT
Nautical Twilight 6:16 AM CDT 7:38 PM CDT
Astronomical Twilight 5:48 AM CDT 8:06 PM CDT
Moon 5:18 PM CDT (10/9) 5:00 AM CDT (10/9)
Length of Visible Light 12h 25m
Length of Day
11h 36m
Waxing Gibbous, 95% of the Moon is Illuminated
Oct 9
Waxing Gibbous
Oct 11
Full
Oct 19
Last Quarter
Oct 26
New
Nov 2
First Quarter

Hourly Weather History & Observations

Time (CDT) Temp. Heat Index Dew Point Humidity Pressure Visibility Wind Dir Wind Speed Gust Speed Precip Events Conditions
12:53 AM 66.9 °F - 59.0 °F 76% 30.07 in 10.0 mi East 4.6 mph - N/A   Clear
1:53 AM 66.9 °F - 59.0 °F 76% 30.07 in 10.0 mi Calm Calm - N/A   Clear
2:53 AM 64.0 °F - 57.9 °F 80% 30.06 in 10.0 mi NE 3.5 mph - N/A   Clear
3:53 AM 64.9 °F - 59.0 °F 81% 30.05 in 10.0 mi Calm Calm - N/A   Clear
4:53 AM 66.0 °F - 57.9 °F 75% 30.06 in 10.0 mi East 3.5 mph - N/A   Clear
5:53 AM 66.0 °F - 57.9 °F 75% 30.05 in 10.0 mi ENE 8.1 mph - N/A   Clear
6:53 AM 66.0 °F - 57.9 °F 75% 30.06 in 10.0 mi East 8.1 mph - N/A   Clear
7:53 AM 66.9 °F - 57.0 °F 70% 30.05 in 10.0 mi East 9.2 mph - N/A   Clear
8:53 AM 70.0 °F - 55.9 °F 61% 30.07 in 10.0 mi East 11.5 mph - N/A   Clear
9:53 AM 73.0 °F - 55.9 °F 55% 30.09 in 10.0 mi ESE 10.4 mph - N/A   Clear
10:53 AM 75.9 °F - 55.9 °F 50% 30.08 in 10.0 mi East 10.4 mph 19.6 mph N/A   Clear
11:53 AM 79.0 °F - 57.0 °F 47% 30.07 in 10.0 mi ESE 15.0 mph - N/A   Clear
12:53 PM 81.0 °F 80.8 °F 55.9 °F 42% 30.03 in 10.0 mi ESE 10.4 mph - N/A   Clear
1:53 PM 82.9 °F 81.9 °F 54.0 °F 37% 29.99 in 10.0 mi East 13.8 mph 19.6 mph N/A   Scattered Clouds
2:53 PM 82.4 °F 81.4 °F 53.6 °F 37% 29.96 in 10.0 mi ESE 9.2 mph - N/A   Clear
3:53 PM 82.9 °F 81.8 °F 53.1 °F 36% 29.96 in 10.0 mi East 12.7 mph - N/A   Scattered Clouds
4:53 PM 82.9 °F 81.8 °F 53.1 °F 36% 29.96 in 10.0 mi East 11.5 mph - N/A   Partly Cloudy
5:53 PM 81.0 °F 80.4 °F 53.1 °F 38% 29.96 in 10.0 mi ESE 9.2 mph - N/A   Scattered Clouds
6:53 PM 75.9 °F - 55.0 °F 48% 29.97 in 10.0 mi Calm Calm - N/A   Clear
7:53 PM 71.1 °F - 57.0 °F 61% 29.98 in 10.0 mi Calm Calm - N/A   Clear
8:53 PM 71.1 °F - 57.0 °F 61% 29.99 in 10.0 mi Calm Calm - N/A   Partly Cloudy
9:53 PM 72.0 °F - 57.9 °F 61% 30.00 in 10.0 mi East 5.8 mph - N/A   Clear
10:53 PM 73.0 °F - 57.9 °F 59% 30.00 in 10.0 mi East 8.1 mph - N/A   Clear
11:53 PM 71.6 °F - 57.2 °F 60% 29.99 in 10.0 mi East 8.1 mph - N/A   Clear